Wind_Speed
18 17 17 19 24 26 26 23 29 31 35 37 32 36 26 35 33 32 30 28 25 23 21 19 17 17 17 17 18 18 18 20 18 18 15 13 11 9 8 7 7 6 4
20 18 15 15 20 24 25 22 27 28 32 45 36 40 28 18 33 29 26 25 24 22 20 18 17 17 17 17 17 18 20 21 22 12 11 8 8 10 10 9 8 7 6
23 23 19 16 18 24 22 26 29 30 31 39 37 43 40 29 25 27 26 23 23 21 19 17 16 16 15 16 17 17 17 20 20 18 9 5 4 10 11 11 10 9 8
23 23 23 20 17 23 21 24 28 27 36 39 39 44 41 40 28 29 28 25 23 21 19 17 15 14 14 14 15 16 15 15 17 17 12 6 7 6 5 11 11 10 10
26 28 26 23 19 20 21 24 30 30 31 33 43 42 45 43 25 27 27 25 22 20 18 16 15 13 13 13 14 15 15 13 13 13 12 9 7 7 5 5 5 8 8
28 26 23 17 8 15 22 25 28 29 32 34 40 42 46 44 32 29 26 25 23 21 18 16 15 13 12 11 11 12 12 12 11 9 9 7 6 5 4 2 4 6 7
25 27 21 14 1 14 21 23 23 27 31 38 37 41 45 41 32 31 29 29 26 23 21 17 15 13 12 11 10 10 10 10 8 8 6 6 4 3 3 3 5 5 9
23 26 19 12 3 13 18 22 23 28 33 40 41 44 41 44 37 33 30 28 25 23 19 16 14 13 12 11 10 9 9 9 8 6 4 2 2 2 3 4 5 6 7
21 25 18 7 5 10 16 17 20 28 34 38 38 38 43 41 42 36 28 25 23 21 18 17 16 16 15 12 12 11 9 7 4 2 3 4 4 3 4 7 8 6 6
18 20 17 12 3 5 10 14 20 25 32 35 37 38 42 46 41 41 38 34 30 28 28 27 24 20 19 18 14 10 7 4 4 6 6 3 3 4 7 9 10 11 8
16 16 15 14 9 4 10 14 19 23 26 32 35 40 45 50 51 45 37 38 37 34 31 30 26 23 20 14 13 11 8 9 8 8 5 3 5 7 8 9 10 12 11
12 12 12 10 10 7 7 13 16 20 24 27 35 40 46 49 45 40 43 41 38 34 30 26 24 21 15 13 11 11 12 10 8 5 3 4 5 7 8 9 11 11 11
11 9 9 8 6 7 6 9 14 20 25 26 37 43 49 48 44 41 42 39 34 30 25 24 20 16 14 15 15 12 11 9 7 4 3 4 5 7 8 10 11 10 11
9 9 9 6 3 3 4 7 11 17 24 29 36 44 43 46 43 43 39 37 30 26 26 20 18 17 17 15 15 13 10 6 5 3 3 4 5 7 9 10 10 11 12
11 11 13 10 5 2 10 10 11 16 21 28 34 41 41 44 43 41 38 32 30 28 22 19 18 18 17 16 14 11 7 6 3 2 2 5 7 9 10 9 9 11 12
11 12 19 14 5 1 7 15 16 18 25 32 38 41 44 40 37 36 35 34 27 21 18 19 19 19 18 16 12 8 6 3 1 2 3 6 8 8 9 11 13 14 13
12 14 16 20 10 4 5 21 14 28 30 32 36 38 42 39 39 38 36 29 24 22 21 21 21 19 16 11 7 5 2 1 2 3 5 6 6 7 8 11 14 15 13
5 10 14 17 18 7 5 6 17 29 28 34 37 37 38 34 35 36 29 26 29 26 25 22 19 17 12 9 5 3 3 2 2 4 5 5 5 6 9 12 11 12 11
2 5 6 13 19 15 7 9 15 20 25 29 31 33 33 32 31 28 28 29 26 24 23 20 16 12 11 7 4 2 1 2 3 4 6 6 6 9 12 11 11 12 10
3 1 3 7 13 17 17 11 17 24 34 32 30 31 27 28 29 28 27 26 23 23 20 17 13 10 8 6 3 2 3 3 5 2 6 7 9 12 13 13 12 11 11
4 4 6 7 11 14 17 22 30 36 33 31 26 28 30 29 28 28 25 25 22 19 16 13 11 9 5 3 1 1 3 3 5 5 8 9 11 12 12 11 10 10 12
6 7 8 9 11 12 13 18 19 23 23 26 27 27 27 26 25 23 23 20 17 15 15 12 9 6 4 2 2 4 5 5 6 7 9 10 10 10 11 11 11 10 10
8 9 10 10 12 13 12 15 21 22 23 24 24 23 23 22 21 21 22 21 17 14 13 11 10 8 6 3 3 3 5 6 6 7 9 10 11 11 10 10 10 9 9
11 11 11 12 13 15 15 15 18 19 20 22 23 24 24 25 23 20 17 16 16 14 13 12 10 7 5 4 3 3 5 7 6 8 9 10 10 10 9 9 9 9 9
13 12 13 13 16 16 17 18 21 22 23 24 25 25 23 22 20 18 16 15 13 11 10 9 7 5 5 3 3 5 6 8 9 9 9 9 9 8 9 9 8 9 9
16 15 15 15 16 17 19 20 21 22 23 26 26 25 23 22 20 19 19 16 12 11 8 7 6 4 2 3 6 7 6 8 9 9 9 9 9 9 8 8 8 8 9
Wind_Direction
315 307 288 262 240 236 231 228 226 227 225 225 202 168 182 187 192 194 193 190 188 188 189 191 191 187 182 182 178 175 172 165 164 160 156 159 167 172 179 186 194 204 222
322 316 303 274 246 236 230 221 218 223 223 213 226 203 190 189 185 192 192 190 188 187 189 192 191 188 183 183 182 183 176 172 165 165 151 156 181 198 198 203 211 227 252
323 321 311 284 257 238 221 218 214 217 220 210 204 197 191 203 182 191 186 190 188 185 186 188 193 190 187 185 182 182 188 182 175 175 163 156 177 175 213 216 224 237 259
331 324 314 297 276 242 216 211 212 217 215 209 204 205 198 182 195 190 183 187 185 181 183 185 186 190 187 186 187 184 185 192 188 184 197 186 170 167 179 219 230 245 266
336 329 320 301 278 234 203 202 206 214 210 215 205 187 183 184 182 194 184 182 183 178 180 182 181 184 185 184 191 191 188 188 196 198 199 196 191 196 158 197 222 246 260
345 338 333 324 279 195 194 196 203 206 206 206 194 189 181 173 188 190 182 181 181 175 178 179 178 180 181 178 182 185 179 180 184 188 183 194 192 185 194 172 222 244 266
350 352 347 354 174 179 182 191 197 204 198 194 190 189 175 165 181 183 185 183 178 176 178 177 174 172 169 167 169 172 166 165 169 168 178 172 175 191 227 241 267 282 291
353 0 356 13 74 169 183 194 196 199 198 191 178 174 171 167 177 184 185 184 179 176 175 169 165 163 160 161 163 165 156 149 146 151 177 163 200 266 268 279 304 309 294
352 2 2 8 79 164 188 198 204 198 194 192 189 181 181 175 172 175 175 179 179 177 173 172 171 167 161 161 162 163 162 168 146 235 228 237 241 262 298 307 313 308 299
351 1 14 16 73 191 211 207 207 198 196 193 190 187 189 177 169 168 173 183 186 184 181 178 171 169 170 170 182 194 187 197 195 212 218 219 254 297 310 316 320 310 297
350 358 18 24 44 110 176 192 195 193 195 198 194 187 184 187 188 186 185 187 186 183 175 174 175 178 178 185 189 189 188 178 177 193 206 258 306 318 317 318 317 315 318
346 353 22 39 46 76 146 189 195 197 194 195 191 187 184 186 183 183 193 192 184 179 178 174 174 172 183 185 174 178 177 168 182 200 226 281 309 312 313 323 324 323 318
349 354 1 25 56 70 116 166 192 198 195 188 193 188 188 186 185 188 186 185 179 177 179 177 176 178 171 176 168 172 179 174 181 211 265 293 310 311 330 332 329 321 323
353 3 4 0 1 167 147 154 179 195 197 193 192 187 188 188 189 184 182 180 176 178 175 172 166 166 173 167 160 177 182 185 201 223 274 304 318 336 338 331 325 320 323
10 11 15 359 342 222 190 184 180 189 192 194 196 189 180 183 181 179 178 176 174 170 166 159 162 165 160 166 170 169 185 204 212 250 320 335 337 335 330 323 312 324 325
24 29 29 26 11 247 193 204 196 191 191 189 181 186 186 179 180 184 182 172 161 152 155 163 167 165 166 168 167 179 185 209 247 334 328 334 336 332 322 320 316 333 329
55 44 36 22 29 53 166 175 189 193 191 189 190 190 187 180 180 178 166 149 148 163 168 168 170 165 162 164 162 158 176 246 285 332 335 326 322 326 328 325 329 331 326
66 32 33 36 31 66 137 184 190 183 192 186 187 183 173 175 161 149 143 151 156 161 165 164 167 165 156 159 166 175 212 246 335 340 325 321 335 333 333 330 326 316 327
280 7 36 47 37 64 98 152 161 169 168 155 149 152 150 147 141 141 147 155 156 157 160 160 163 163 158 161 173 172 261 358 309 354 313 327 345 335 334 328 329 326 331
208 45 79 79 70 67 68 130 149 150 137 129 134 139 140 148 142 142 153 153 155 156 159 162 162 159 163 160 147 66 274 11 310 10 316 330 329 343 337 336 323 327 324
178 154 138 118 98 94 89 97 124 124 124 131 137 143 148 149 147 151 155 156 157 159 158 161 161 164 155 158 159 330 333 356 304 333 312 327 343 335 328 324 323 322 326
163 158 155 152 135 116 119 122 123 121 133 140 135 140 143 147 152 153 150 152 157 165 164 160 160 161 176 224 314 333 327 319 315 326 322 328 332 330 331 330 328 327 324
169 158 157 160 157 151 152 139 138 139 138 141 145 149 150 153 155 162 162 162 161 162 165 170 177 183 196 226 278 300 304 307 318 325 329 330 332 335 335 331 328 328 328
174 162 154 159 162 159 163 174 163 157 155 153 152 154 157 159 161 161 159 162 164 169 175 177 181 185 195 217 228 270 291 313 333 332 330 330 334 337 334 330 330 328 327
186 174 159 159 164 163 162 166 167 166 164 164 163 162 163 162 160 162 164 167 170 174 180 179 182 198 212 223 274 289 304 315 330 331 335 336 332 327 327 327 325 326 329
191 177 172 167 169 168 168 170 172 172 173 171 169 168 168 168 169 170 169 171 179 180 180 185 196 197 218 300 302 307 317 317 331 331 328 323 320 318 319 320 320 316 317
Height
1445 1440 1437 1436 1437 1439 1443 1445 1447 1450 1452 1455 1459 1448 1474 1476 1485 1492 1496 1499 1503 1509 1515 1519 1522 1524 1523 1525 1526 1527 1528 1530 1534 1537 1540 1543 1544 1546 1547 1548 1548 1548 1548
1442 1438 1434 1432 1432 1433 1437 1438 1441 1443 1445 1451 1451 1455 1465 1482 1478 1492 1497 1500 1503 1507 1514 1518 1522 1524 1524 1524 1525 1527 1528 1529 1532 1536 1540 1543 1545 1545 1546 1546 1547 1547 1547
1440 1434 1429 1427 1426 1427 1431 1432 1436 1440 1440 1447 1454 1459 1463 1481 1479 1491 1493 1500 1503 1506 1512 1517 1521 1524 1525 1525 1525 1526 1528 1528 1531 1533 1537 1540 1542 1544 1544 1545 1546 1546 1545
1437 1432 1425 1421 1420 1420 1426 1428 1431 1436 1438 1441 1446 1449 1453 1470 1481 1490 1488 1499 1503 1505 1511 1516 1520 1523 1525 1526 1527 1527 1527 1529 1530 1532 1535 1536 1537 1540 1545 1543 1544 1544 1545
1435 1427 1421 1414 1412 1412 1420 1425 1427 1431 1436 1439 1443 1439 1458 1471 1475 1484 1489 1497 1504 1504 1511 1515 1518 1521 1524 1525 1528 1528 1527 1528 1531 1531 1533 1535 1536 1539 1539 1544 1542 1543 1542
1432 1425 1417 1410 1406 1407 1414 1420 1424 1428 1432 1437 1440 1447 1451 1465 1476 1486 1491 1498 1504 1504 1511 1515 1517 1520 1522 1524 1528 1530 1528 1528 1530 1532 1532 1535 1536 1536 1539 1539 1542 1542 1541
1430 1423 1415 1411 1409 1410 1413 1418 1422 1427 1430 1435 1441 1447 1451 1459 1471 1480 1489 1499 1499 1503 1510 1513 1516 1518 1521 1524 1528 1531 1529 1529 1530 1530 1533 1534 1534 1535 1536 1537 1539 1539 1536
1430 1423 1417 1413 1412 1412 1415 1418 1420 1424 1429 1434 1440 1447 1450 1458 1468 1480 1490 1496 1498 1504 1510 1511 1514 1517 1520 1524 1528 1531 1530 1530 1528 1530 1534 1532 1534 1532 1534 1536 1535 1536 1535
1431 1424 1419 1415 1415 1415 1416 1418 1420 1424 1427 1433 1438 1445 1452 1458 1459 1475 1483 1490 1498 1503 1504 1508 1511 1514 1516 1522 1527 1529 1529 1528 1527 1531 1532 1532 1530 1531 1534 1534 1532 1532 1533
1432 1427 1421 1417 1416 1417 1417 1418 1421 1425 1428 1433 1438 1445 1451 1457 1466 1470 1479 1488 1492 1495 1495 1498 1502 1509 1513 1516 1523 1527 1526 1526 1525 1528 1530 1530 1529 1529 1529 1530 1528 1530 1529
1432 1428 1423 1420 1417 1416 1417 1419 1421 1425 1429 1432 1437 1443 1449 1454 1461 1467 1475 1485 1487 1492 1494 1498 1498 1504 1513 1517 1520 1521 1521 1522 1524 1527 1528 1529 1528 1527 1527 1527 1525 1526 1525
1432 1429 1425 1422 1419 1418 1419 1421 1423 1425 1429 1433 1437 1442 1448 1454 1461 1466 1475 1484 1486 1490 1493 1497 1501 1505 1511 1515 1517 1519 1521 1520 1524 1526 1525 1526 1526 1526 1525 1523 1522 1522 1522
1432 1429 1426 1423 1422 1421 1421 1422 1423 1426 1430 1434 1438 1442 1448 1455 1460 1465 1476 1484 1485 1490 1493 1499 1502 1501 1508 1512 1517 1520 1523 1521 1522 1524 1525 1524 1524 1524 1520 1519 1520 1520 1518
1433 1429 1426 1424 1422 1421 1422 1422 1424 1426 1429 1433 1437 1441 1448 1454 1460 1466 1475 1482 1483 1489 1493 1499 1502 1502 1509 1512 1514 1520 1523 1522 1521 1521 1521 1523 1523 1521 1517 1517 1516 1517 1516
1433 1430 1427 1424 1422 1420 1420 1422 1424 1426 1429 1433 1437 1441 1448 1454 1460 1468 1475 1478 1482 1489 1494 1499 1503 1506 1508 1513 1516 1518 1521 1525 1522 1521 1519 1518 1517 1516 1516 1515 1515 1511 1513
1436 1432 1427 1424 1421 1419 1419 1420 1422 1425 1428 1432 1435 1440 1444 1452 1461 1468 1471 1476 1483 1491 1498 1501 1505 1508 1513 1517 1516 1518 1522 1524 1520 1518 1518 1516 1515 1514 1514 1513 1512 1508 1504
1439 1435 1431 1426 1421 1420 1419 1417 1421 1421 1427 1431 1436 1440 1443 1452 1460 1466 1473 1479 1488 1496 1500 1505 1509 1510 1513 1517 1518 1519 1520 1521 1522 1517 1516 1516 1514 1513 1510 1507 1509 1506 1504
1439 1438 1434 1430 1426 1422 1421 1421 1421 1423 1427 1431 1436 1441 1447 1456 1461 1469 1476 1484 1492 1498 1503 1507 1511 1513 1513 1517 1519 1518 1520 1521 1518 1517 1518 1516 1511 1508 1508 1505 1503 1507 1500
1440 1439 1438 1436 1432 1426 1425 1425 1425 1427 1431 1435 1440 1446 1452 1460 1467 1473 1480 1488 1492 1498 1504 1508 1512 1512 1515 1516 1517 1516 1519 1517 1518 1510 1519 1515 1510 1504 1502 1506 1499 1502 1498
1439 1440 1440 1439 1438 1435 1432 1429 1430 1432 1438 1442 1446 1453 1459 1466 1471 1477 1484 1489 1494 1499 1504 1508 1510 1511 1513 1516 1515 1513 1521 1511 1519 1508 1518 1511 1507 1499 1501 1500 1501 1496 1496
1439 1440 1441 1442 1442 1442 1441 1438 1439 1441 1445 1450 1454 1459 1465 1471 1476 1481 1486 1491 1495 1499 1503 1505 1508 1510 1511 1514 1515 1515 1516 1512 1518 1508 1514 1507 1499 1500 1500 1500 1497 1495 1492
1440 1441 1442 1443 1444 1446 1447 1448 1449 1450 1454 1457 1461 1465 1471 1475 1480 1484 1488 1492 1496 1500 1503 1505 1506 1508 1510 1513 1513 1514 1514 1516 1513 1508 1508 1504 1501 1499 1498 1495 1494 1493 1491
1438 1440 1442 1443 1445 1447 1450 1452 1454 1457 1459 1463 1466 1470 1474 1479 1484 1488 1491 1494 1498 1501 1504 1506 1508 1510 1512 1513 1512 1512 1513 1512 1510 1506 1503 1500 1498 1496 1495 1494 1493 1491 1489
1438 1438 1440 1443 1445 1448 1451 1454 1457 1460 1463 1466 1469 1473 1477 1481 1485 1489 1492 1496 1499 1502 1505 1507 1508 1509 1510 1511 1511 1511 1511 1508 1505 1502 1500 1498 1496 1494 1494 1492 1491 1489 1487
1439 1440 1439 1441 1444 1447 1451 1454 1458 1461 1464 1468 1471 1475 1479 1483 1486 1490 1494 1497 1500 1503 1505 1506 1507 1508 1509 1509 1508 1508 1506 1503 1501 1499 1497 1496 1494 1493 1492 1490 1489 1487 1485
1438 1439 1440 1441 1443 1446 1450 1454 1457 1461 1465 1468 1472 1476 1480 1484 1487 1491 1493 1497 1500 1502 1503 1505 1506 1506 1505 1505 1505 1503 1502 1499 1498 1496 1495 1494 1492 1491 1490 1488 1487 1486 1484